Duluth Sky Harbor, MN

8:13 PM CDT on March 22, 2017 (GMT -0500)
Sky Harbor

Weather History for KDYT - November, 2011

Change the Weather History Date:

Monday, November 14, 2011

  Actual Average Record
Temperature  
Mean Temperature 42 °F -  
Max Temperature 50 °F 37 °F 67 °F (1953)
Min Temperature 33 °F 25 °F -1 °F (1959)
Degree Days  
Heating Degree Days 24    
Moisture  
Dew Point 29 °F    
Average Humidity 68    
Maximum Humidity 87    
Minimum Humidity 46    
Precipitation  
Precipitation 0.00 in - - ()
Sea Level Pressure  
Sea Level Pressure 29.38 in    
Wind  
Wind Speed 8 mph (SW)    
Max Wind Speed 22 mph    
Max Gust Speed 30 mph    
Visibility 10 miles    
Events Rain , Thunderstorm    
Averages and records for this station are not official NWS values.
T = Trace of Precipitation, MM = Missing Value Source: NWS Daily Summary

Daily Weather History Graph

Daily Weather History Graph

Search for Another Location

Airport or City:

Trip Planner

Search our weather history database for the weather conditions in past years. The results will help you decide how hot, cold, wet, or windy it might be!

Date:

Astronomy

Nov. 14, 2011 Rise Set
Actual Time 7:08 AM CST 4:35 PM CST
Civil Twilight 6:36 AM CST 5:08 PM CST
Nautical Twilight 5:59 AM CST 5:45 PM CST
Astronomical Twilight 5:23 AM CST 6:20 PM CST
Moon 7:38 PM CST (11/14) 10:33 AM CST (11/14)
Length of Visible Light 10h 32m
Length of Day
9h 26m
Waning Gibbous, 86% of the Moon is Illuminated
Nov 14
Waning Gibbous
Nov 18
Last Quarter
Nov 25
New
Dec 2
First Quarter
Dec 10
Full

Hourly Weather History & Observations

Time (CST) Temp. Windchill Dew Point Humidity Pressure Visibility Wind Dir Wind Speed Gust Speed Precip Events Conditions
12:14 AM 33.8 °F 29.6 °F 28.4 °F 81% 29.41 in 10.0 mi SW 4.6 mph - N/A   Scattered Clouds
12:34 AM 33.8 °F 29.6 °F 30.2 °F 87% 29.41 in 10.0 mi SW 4.6 mph - N/A   Clear
12:53 AM 33.8 °F - 28.4 °F 81% 29.40 in 10.0 mi Calm Calm - N/A   Clear
1:14 AM 33.8 °F - 30.2 °F 87% 29.40 in 10.0 mi Calm Calm - N/A   Clear
1:33 AM 33.8 °F 30.8 °F 28.4 °F 81% 29.40 in 10.0 mi SW 3.5 mph - N/A   Clear
1:54 AM 33.8 °F 28.6 °F 28.4 °F 81% 29.40 in 10.0 mi SW 5.8 mph - N/A   Clear
2:13 AM 33.8 °F 28.6 °F 28.4 °F 81% 29.41 in 10.0 mi SW 5.8 mph - N/A   Clear
2:34 AM 33.8 °F 27.7 °F 28.4 °F 81% 29.40 in 10.0 mi SW 6.9 mph - N/A   Clear
2:54 AM 33.8 °F 27.0 °F 28.4 °F 81% 29.39 in 10.0 mi SW 8.1 mph - N/A   Clear
3:13 AM 33.8 °F 27.7 °F 28.4 °F 81% 29.38 in 10.0 mi SW 6.9 mph - N/A   Clear
3:34 AM 33.8 °F 28.6 °F 28.4 °F 81% 29.38 in 10.0 mi SW 5.8 mph - N/A   Scattered Clouds
3:54 AM 33.8 °F 29.6 °F 28.4 °F 81% 29.37 in 10.0 mi SW 4.6 mph - N/A   Mostly Cloudy
4:13 AM 33.8 °F 27.0 °F 28.4 °F 81% 29.37 in 10.0 mi SW 8.1 mph - N/A   Scattered Clouds
4:34 AM 33.8 °F 27.0 °F 28.4 °F 81% 29.37 in 10.0 mi WSW 8.1 mph - N/A   Clear
4:53 AM 33.8 °F 27.7 °F 28.4 °F 81% 29.37 in 10.0 mi SW 6.9 mph - N/A   Clear
5:13 AM 33.8 °F 27.7 °F 28.4 °F 81% 29.37 in 10.0 mi SW 6.9 mph - N/A   Clear
5:34 AM 33.8 °F 27.7 °F 28.4 °F 81% 29.37 in 10.0 mi SW 6.9 mph - N/A   Scattered Clouds
6:13 AM 33.8 °F 28.6 °F 30.2 °F 87% 29.37 in 10.0 mi SW 5.8 mph - N/A   Clear
6:34 AM 33.8 °F 27.0 °F 30.2 °F 87% 29.37 in 10.0 mi WSW 8.1 mph - N/A   Scattered Clouds
6:53 AM 33.8 °F 27.0 °F 30.2 °F 87% 29.37 in 10.0 mi SW 8.1 mph - N/A   Scattered Clouds
7:34 AM 33.8 °F 28.6 °F 28.4 °F 81% 29.36 in 10.0 mi SW 5.8 mph - N/A   Scattered Clouds
8:33 AM 33.8 °F 26.4 °F 28.4 °F 81% 29.36 in 10.0 mi SW 9.2 mph - N/A   Clear
8:54 AM 33.8 °F 28.6 °F 28.4 °F 81% 29.37 in 10.0 mi SW 5.8 mph - N/A   Clear
9:14 AM 33.8 °F 29.6 °F 28.4 °F 81% 29.37 in 10.0 mi SW 4.6 mph - N/A   Clear
9:33 AM 35.6 °F 29.9 °F 28.4 °F 75% 29.38 in 10.0 mi WSW 6.9 mph - N/A   Clear
9:53 AM 37.4 °F 31.4 °F 28.4 °F 70% 29.37 in 10.0 mi WSW 8.1 mph - N/A   Clear
10:14 AM 39.2 °F 33.0 °F 30.2 °F 70% 29.37 in 10.0 mi WSW 9.2 mph - N/A   Clear
10:34 AM 39.2 °F 33.6 °F 30.2 °F 70% 29.37 in 10.0 mi SW 8.1 mph - N/A   Scattered Clouds
10:53 AM 42.8 °F 36.6 °F 30.2 °F 61% 29.37 in 10.0 mi SW 11.5 mph - N/A   Scattered Clouds
11:14 AM 42.8 °F 35.1 °F 30.2 °F 61% 29.36 in 10.0 mi SW 16.1 mph - N/A   Scattered Clouds
11:33 AM 42.8 °F 35.4 °F 30.2 °F 61% 29.36 in 10.0 mi SW 15.0 mph - N/A   Mostly Cloudy
11:54 AM 42.8 °F 35.1 °F 30.2 °F 61% 29.36 in 10.0 mi SW 16.1 mph - N/A   Mostly Cloudy
12:13 PM 42.8 °F 36.2 °F 30.2 °F 61% 29.35 in 10.0 mi SW 12.7 mph - N/A   Mostly Cloudy
12:33 PM 44.6 °F 37.8 °F 30.2 °F 57% 29.35 in 10.0 mi SW 15.0 mph - N/A   Mostly Cloudy
12:54 PM 46.4 °F 40.7 °F 32.0 °F 57% 29.35 in 10.0 mi SW 12.7 mph 17.3 mph N/A Rain Light Rain
1:13 PM 46.4 °F 41.9 °F 30.2 °F 53% 29.34 in 10.0 mi SSW 9.2 mph - N/A   Mostly Cloudy
1:33 PM 46.4 °F 41.5 °F 30.2 °F 53% 29.34 in 10.0 mi WSW 10.4 mph 17.3 mph N/A   Scattered Clouds
1:54 PM 46.4 °F 41.9 °F 32.0 °F 57% 29.35 in 10.0 mi WSW 9.2 mph - N/A   Scattered Clouds
2:13 PM 48.2 °F - 32.0 °F 54% 29.35 in 10.0 mi WSW 6.9 mph - N/A   Scattered Clouds
2:33 PM 48.2 °F - 30.2 °F 50% 29.34 in 10.0 mi SW 11.5 mph 16.1 mph N/A   Clear
2:54 PM 48.2 °F - 30.2 °F 50% 29.34 in 10.0 mi SW 12.7 mph 21.9 mph N/A   Clear
3:13 PM 50.0 °F - 30.2 °F 47% 29.34 in 10.0 mi SW 15.0 mph 19.6 mph N/A   Clear
3:33 PM 50.0 °F - 30.2 °F 47% 29.35 in 10.0 mi SW 13.8 mph 23.0 mph N/A   Clear
3:54 PM 48.2 °F - 30.2 °F 50% 29.35 in 10.0 mi SW 16.1 mph 21.9 mph N/A Thunderstorm Thunderstorm
4:14 PM 48.2 °F - 30.2 °F 50% 29.36 in 10.0 mi SW 19.6 mph - N/A   Scattered Clouds
4:33 PM 48.2 °F - 30.2 °F 50% 29.37 in 10.0 mi SW 17.3 mph 23.0 mph N/A Thunderstorm Mostly Cloudy
4:54 PM 48.2 °F - 30.2 °F 50% 29.38 in 10.0 mi SW 18.4 mph 25.3 mph N/A   Mostly Cloudy
5:13 PM 46.4 °F 40.4 °F 30.2 °F 53% 29.40 in 10.0 mi WSW 13.8 mph 17.3 mph N/A   Mostly Cloudy
5:33 PM 46.4 °F 38.5 °F 26.6 °F 46% 29.40 in 10.0 mi WSW 21.9 mph 29.9 mph N/A   Scattered Clouds
5:54 PM 46.4 °F 39.5 °F 28.4 °F 50% 29.42 in 10.0 mi WSW 17.3 mph 26.5 mph N/A   Clear
6:13 PM 44.6 °F 38.1 °F 26.6 °F 49% 29.43 in 10.0 mi WSW 13.8 mph - N/A   Clear
6:33 PM 44.6 °F 38.1 °F 26.6 °F 49% 29.44 in 10.0 mi WSW 13.8 mph - N/A   Clear
6:54 PM 44.6 °F 37.4 °F 26.6 °F 49% 29.45 in 10.0 mi SW 16.1 mph - N/A   Scattered Clouds
7:13 PM 42.8 °F 35.1 °F 30.2 °F 61% 29.45 in 10.0 mi SW 16.1 mph - N/A   Scattered Clouds
7:33 PM 42.8 °F 35.1 °F 32.0 °F 66% 29.46 in 10.0 mi SW 16.1 mph 19.6 mph N/A   Mostly Cloudy
7:54 PM 41.0 °F 33.9 °F 32.0 °F 70% 29.47 in 10.0 mi SW 12.7 mph - N/A   Scattered Clouds
8:13 PM 39.2 °F 33.6 °F 32.0 °F 75% 29.49 in 10.0 mi WSW 8.1 mph - N/A   Clear
8:33 PM 39.2 °F 33.0 °F 32.0 °F 75% 29.50 in 10.0 mi West 9.2 mph - N/A   Clear
8:54 PM 39.2 °F 32.5 °F 33.8 °F 81% 29.52 in 10.0 mi West 10.4 mph - N/A   Clear
9:13 PM 39.2 °F 31.6 °F 32.0 °F 75% 29.53 in 10.0 mi WSW 12.7 mph - N/A   Scattered Clouds
9:33 PM 39.2 °F 33.0 °F 32.0 °F 75% 29.54 in 10.0 mi WSW 9.2 mph - N/A   Clear
9:54 PM 37.4 °F 33.8 °F 32.0 °F 81% 29.54 in 10.0 mi SW 4.6 mph - N/A   Clear
10:14 PM 35.6 °F 29.9 °F 32.0 °F 87% 29.54 in 10.0 mi South 6.9 mph - N/A   Clear
10:33 PM 35.6 °F 28.6 °F 30.2 °F 81% 29.55 in 10.0 mi South 9.2 mph - N/A   Clear
10:54 PM 35.6 °F 26.2 °F 32.0 °F 87% 29.57 in 10.0 mi SSW 15.0 mph - N/A   Clear
11:13 PM 35.6 °F 27.1 °F 30.2 °F 81% 29.56 in 10.0 mi SSW 12.7 mph - N/A   Clear
11:34 PM 35.6 °F 27.5 °F 30.2 °F 81% 29.57 in 10.0 mi SW 11.5 mph - N/A   Clear
11:54 PM 33.8 °F 25.3 °F 30.2 °F 87% 29.57 in 10.0 mi SW 11.5 mph - N/A   Clear